107P/(4015) Wilson-Harrington (2009)

Japanese version
Home page
Updated on February 18, 2010

---------------------------------------------------------------------

* Profile

* Pictures

* Orbital Elements

The following orbital elements are taken from MPO 47597

Epoch 2009 June 18.0 TT = JDT 2455000.5                 MPC
M 331.00417              (2000.0)            P               Q
n   0.23004263     Peri.   91.25031     +0.99832235     -0.03147896
a   2.6379334      Node   270.55507     +0.00956789     +0.91744867
e   0.6243026      Incl.    2.78557     +0.05710466     +0.39660687
P   4.28           H   15.99          G   0.15           U   1
From 152 observations at 9 oppositions, 1949-2002, mean residual 0".79.

* Finding Charts

* Magnitudes Graph

        H = 16.0  G = 0.15

---------------------------------------------------------------------

The orbital elements are published at the MPC Ephemerides and Orbital Elements.
The charts are made with StellaNavigator Ver.8 (AstroArts).
The magnitudes graphs are made with Comet for Windows.

---------------------------------------------------------------------

Copyright(C) Seiichi Yoshida (comet@aerith.net). All rights reserved.